START_TIME,STEP,MOV.,P1,t_acc.,E44,t_acc.,A3,t_acc.,P10,t_acc.
1979-03-06 08:18:22.590 ,0,0,,0,,0,,0,,0
1979-03-06 08:18:23.790 ,0,0,,0,,0,,0,,0
1979-03-06 08:18:24.990 ,0,0,,0,,0,,0,,0
1979-03-06 08:18:26.190 ,0,0,8.,1.2,0.,1.2,0.,1.2,0.,1.2
1979-03-06 08:18:27.390 ,0,0,11.,1.2,0.,1.2,0.,1.2,0.,1.2
1979-03-06 08:18:28.590 ,0,0,,0,,0,,0,,0
1979-03-06 08:18:29.790 ,0,0,9.,1.2,0.,1.2,0.,1.2,0.,1.2
1979-03-06 08:18:30.990 ,0,0,,0,,0,,0,,0
1979-03-06 08:18:32.190 ,0,0,8.,1.2,0.,1.2,0.,1.2,0.,1.2
1979-03-06 08:18:33.390 ,0,0,7.,1.2,0.,1.2,0.,1.2,0.,1.2
1979-03-06 08:18:34.590 ,0,0,10.,1.2,0.,1.2,0.,1.2,0.,1.2
1979-03-06 08:18:35.790 ,0,0,9.,1.2,0.,1.2,0.,1.2,0.,1.2
1979-03-06 08:18:36.990 ,0,0,4.,1.2,0.,1.2,0.,1.2,0.,1.2
1979-03-06 08:18:38.190 ,0,0,,0,,0,,0,,0
1979-03-06 08:18:39.390 ,0,0,,0,,0,,0,,0
1979-03-06 08:18:40.590 ,0,0,9.,1.2,0.,1.2,0.,1.2,0.,1.2
1979-03-06 08:18:41.790 ,0,0,11.,1.2,0.,1.2,0.,1.2,0.,1.2
1979-03-06 08:18:42.990 ,0,0,3.,1.2,0.,1.2,0.,1.2,0.,1.2
1979-03-06 08:18:44.190 ,0,0,7.,1.2,0.,1.2,0.,1.2,0.,1.2
1979-03-06 08:18:45.390 ,0,0,9.,1.2,0.,1.2,1.,1.2,0.,1.2
1979-03-06 08:18:44.790 ,7,1,14.,1.2,0.,1.2,0.,1.2,0.,1.2
1979-03-06 08:18:45.990 ,7,1,11.,1.2,0.,1.2,0.,1.2,0.,1.2
1979-03-06 08:18:47.190 ,7,1,10.,1.2,0.,1.2,0.,1.2,0.,1.2
1979-03-06 08:18:48.390 ,7,1,12.,1.2,0.,1.2,1.,1.2,0.,1.2
1979-03-06 08:18:49.590 ,7,1,7.,1.2,0.,1.2,0.,1.2,0.,1.2
1979-03-06 08:18:50.790 ,7,1,13.,1.2,0.,1.2,0.,1.2,0.,1.2
1979-03-06 08:18:51.990 ,7,1,10.,1.2,0.,1.2,1.,1.2,0.,1.2
1979-03-06 08:18:53.190 ,7,1,5.,1.2,0.,1.2,0.,1.2,1.,1.2
1979-03-06 08:18:54.390 ,7,1,16.,1.2,0.,1.2,0.,1.2,0.,1.2
1979-03-06 08:18:55.590 ,7,1,8.,1.2,0.,1.2,1.,1.2,0.,1.2
1979-03-06 08:18:56.790 ,7,1,9.,1.2,0.,1.2,0.,1.2,0.,1.2
1979-03-06 08:18:57.990 ,7,1,10.,1.2,0.,1.2,1.,1.2,0.,1.2
1979-03-06 08:18:59.190 ,7,1,8.,1.2,0.,1.2,0.,1.2,0.,1.2
1979-03-06 08:19:00.390 ,7,1,13.,1.2,0.,1.2,0.,1.2,0.,1.2
1979-03-06 08:19:01.590 ,7,1,0.,1.2,0.,1.2,3.,1.2,0.,1.2
1979-03-06 08:19:02.790 ,7,1,0.,1.2,0.,1.2,8.,1.2,0.,1.2
1979-03-06 08:19:03.990 ,7,1,0.,1.2,0.,1.2,7.,1.2,0.,1.2
1979-03-06 08:19:05.190 ,7,1,0.,1.2,0.,1.2,5.,1.2,0.,1.2
1979-03-06 08:19:06.390 ,7,1,1.,1.2,0.,1.2,5.,1.2,0.,1.2
1979-03-06 08:19:07.590 ,7,1,0.,1.2,0.,1.2,4.,1.2,0.,1.2
1979-03-06 08:19:08.790 ,3,1,0.,1.2,0.,1.2,8.,1.2,0.,1.2
1979-03-06 08:19:09.990 ,3,1,0.,1.2,0.,1.2,4.,1.2,0.,1.2
1979-03-06 08:19:11.190 ,3,1,0.,1.2,0.,1.2,4.,1.2,0.,1.2
1979-03-06 08:19:12.390 ,3,1,0.,1.2,0.,1.2,5.,1.2,0.,1.2
1979-03-06 08:19:13.590 ,3,1,13.,1.2,0.,1.2,0.,1.2,1.,1.2
1979-03-06 08:19:14.790 ,3,1,12.,1.2,0.,1.2,0.,1.2,0.,1.2
1979-03-06 08:19:15.990 ,3,1,9.,1.2,0.,1.2,0.,1.2,0.,1.2
1979-03-06 08:19:17.190 ,3,1,6.,1.2,0.,1.2,0.,1.2,0.,1.2
1979-03-06 08:19:18.390 ,3,1,9.,1.2,0.,1.2,0.,1.2,1.,1.2
1979-03-06 08:19:19.590 ,3,1,4.,1.2,0.,1.2,1.,1.2,0.,1.2
1979-03-06 08:19:20.790 ,3,1,11.,1.2,0.,1.2,0.,1.2,0.,1.2
1979-03-06 08:19:21.990 ,3,1,3.,1.2,0.,1.2,0.,1.2,0.,1.2
1979-03-06 08:19:23.190 ,3,1,5.,1.2,0.,1.2,0.,1.2,0.,1.2
1979-03-06 08:19:24.390 ,3,1,7.,1.2,0.,1.2,0.,1.2,0.,1.2
1979-03-06 08:19:25.590 ,3,1,8.,1.2,0.,1.2,0.,1.2,0.,1.2
1979-03-06 08:19:26.790 ,3,1,9.,1.2,0.,1.2,0.,1.2,1.,1.2
1979-03-06 08:19:27.990 ,3,1,8.,1.2,0.,1.2,0.,1.2,0.,1.2
1979-03-06 08:19:29.190 ,3,1,7.,1.2,0.,1.2,0.,1.2,0.,1.2
1979-03-06 08:19:30.390 ,3,1,6.,1.2,0.,1.2,0.,1.2,1.,1.2
1979-03-06 08:19:31.590 ,3,1,9.,1.2,0.,1.2,0.,1.2,0.,1.2
1979-03-06 08:19:32.790 ,0,1,14.,1.2,0.,1.2,0.,1.2,0.,1.2
1979-03-06 08:19:33.990 ,0,1,4.,1.2,0.,1.2,0.,1.2,0.,1.2
1979-03-06 08:19:35.190 ,0,1,13.,1.2,0.,1.2,0.,1.2,0.,1.2
1979-03-06 08:19:36.390 ,0,1,9.,1.2,0.,1.2,0.,1.2,0.,1.2
1979-03-06 08:19:37.590 ,0,1,6.,1.2,0.,1.2,0.,1.2,1.,1.2
1979-03-06 08:19:38.790 ,0,1,8.,1.2,0.,1.2,0.,1.2,0.,1.2
1979-03-06 08:19:39.990 ,0,1,7.,1.2,0.,1.2,0.,1.2,0.,1.2
1979-03-06 08:19:41.190 ,0,1,3.,1.2,0.,1.2,0.,1.2,0.,1.2
1979-03-06 08:19:42.390 ,0,1,12.,1.2,0.,1.2,0.,1.2,0.,1.2
1979-03-06 08:19:43.590 ,0,1,9.,1.2,0.,1.2,0.,1.2,0.,1.2
1979-03-06 08:19:44.790 ,0,1,11.,1.2,0.,1.2,0.,1.2,0.,1.2
1979-03-06 08:19:45.990 ,0,1,9.,1.2,0.,1.2,0.,1.2,0.,1.2
1979-03-06 08:19:47.190 ,0,1,11.,1.2,0.,1.2,0.,1.2,0.,1.2
1979-03-06 08:19:48.390 ,0,1,8.,1.2,0.,1.2,0.,1.2,0.,1.2
1979-03-06 08:19:49.590 ,0,1,14.,1.2,0.,1.2,0.,1.2,0.,1.2
1979-03-06 08:19:50.790 ,0,1,10.,1.2,0.,1.2,0.,1.2,0.,1.2
1979-03-06 08:19:51.990 ,0,1,5.,1.2,0.,1.2,0.,1.2,0.,1.2
1979-03-06 08:19:53.190 ,0,1,7.,1.2,0.,1.2,0.,1.2,0.,1.2
1979-03-06 08:19:54.390 ,0,1,9.,1.2,0.,1.2,0.,1.2,0.,1.2
1979-03-06 08:19:55.590 ,0,1,10.,1.2,0.,1.2,0.,1.2,0.,1.2
1979-03-06 08:19:56.790 ,4,1,10.,1.2,0.,1.2,0.,1.2,0.,1.2
1979-03-06 08:19:57.990 ,4,1,8.,1.2,0.,1.2,0.,1.2,0.,1.2
1979-03-06 08:19:59.190 ,4,1,10.,1.2,0.,1.2,2.,1.2,0.,1.2
1979-03-06 08:20:00.390 ,4,1,15.,1.2,0.,1.2,1.,1.2,0.,1.2
1979-03-06 08:20:01.590 ,4,1,10.,1.2,0.,1.2,0.,1.2,0.,1.2
1979-03-06 08:20:02.790 ,4,1,4.,1.2,0.,1.2,0.,1.2,0.,1.2
1979-03-06 08:20:03.990 ,4,1,5.,1.2,0.,1.2,0.,1.2,0.,1.2
1979-03-06 08:20:05.190 ,4,1,19.,1.2,0.,1.2,0.,1.2,0.,1.2
1979-03-06 08:20:06.390 ,4,1,6.,1.2,0.,1.2,0.,1.2,0.,1.2
1979-03-06 08:20:07.590 ,4,1,7.,1.2,0.,1.2,0.,1.2,0.,1.2
1979-03-06 08:20:08.790 ,4,1,7.,1.2,0.,1.2,0.,1.2,0.,1.2
1979-03-06 08:20:09.990 ,4,1,8.,1.2,0.,1.2,0.,1.2,1.,1.2
1979-03-06 08:20:11.190 ,4,1,5.,1.2,0.,1.2,0.,1.2,0.,1.2
1979-03-06 08:20:12.390 ,4,1,11.,1.2,0.,1.2,0.,1.2,0.,1.2
1979-03-06 08:20:13.590 ,4,1,8.,1.2,0.,1.2,0.,1.2,0.,1.2
1979-03-06 08:20:14.790 ,4,1,6.,1.2,0.,1.2,0.,1.2,0.,1.2
1979-03-06 08:20:15.990 ,4,1,7.,1.2,0.,1.2,0.,1.2,0.,1.2
1979-03-06 08:20:17.190 ,4,1,6.,1.2,0.,1.2,0.,1.2,0.,1.2
1979-03-06 08:20:18.390 ,4,1,6.,1.2,0.,1.2,0.,1.2,0.,1.2
1979-03-06 08:20:19.590 ,4,1,5.,1.2,0.,1.2,0.,1.2,0.,1.2
1979-03-06 08:20:20.790 ,7,1,6.,1.2,0.,1.2,0.,1.2,0.,1.2
1979-03-06 08:20:21.990 ,7,1,5.,1.2,0.,1.2,0.,1.2,0.,1.2
1979-03-06 08:20:23.190 ,7,1,7.,1.2,0.,1.2,0.,1.2,0.,1.2
1979-03-06 08:20:24.390 ,7,1,4.,1.2,0.,1.2,0.,1.2,0.,1.2
1979-03-06 08:20:25.590 ,7,1,3.,1.2,0.,1.2,0.,1.2,0.,1.2
1979-03-06 08:20:26.790 ,7,1,4.,1.2,0.,1.2,0.,1.2,0.,1.2
1979-03-06 08:20:27.990 ,7,1,13.,1.2,0.,1.2,0.,1.2,0.,1.2
1979-03-06 08:20:29.190 ,7,1,4.,1.2,0.,1.2,1.,1.2,0.,1.2
1979-03-06 08:20:30.390 ,7,1,7.,1.2,0.,1.2,0.,1.2,0.,1.2
1979-03-06 08:20:31.590 ,7,1,5.,1.2,0.,1.2,1.,1.2,0.,1.2
1979-03-06 08:20:32.790 ,7,1,9.,1.2,0.,1.2,1.,1.2,0.,1.2
1979-03-06 08:20:33.990 ,7,1,6.,1.2,0.,1.2,0.,1.2,1.,1.2
1979-03-06 08:20:35.190 ,7,1,6.,1.2,0.,1.2,0.,1.2,0.,1.2
1979-03-06 08:20:36.390 ,7,1,6.,1.2,0.,1.2,0.,1.2,0.,1.2
1979-03-06 08:20:37.590 ,7,1,0.,1.2,0.,1.2,2.,1.2,0.,1.2
1979-03-06 08:20:38.790 ,7,1,1.,1.2,0.,1.2,15.,1.2,0.,1.2
1979-03-06 08:20:39.990 ,7,1,0.,1.2,0.,1.2,3.,1.2,0.,1.2
1979-03-06 08:20:41.190 ,7,1,0.,1.2,0.,1.2,8.,1.2,0.,1.2
1979-03-06 08:20:42.390 ,7,1,0.,1.2,0.,1.2,5.,1.2,0.,1.2
1979-03-06 08:20:43.590 ,7,1,0.,1.2,0.,1.2,5.,1.2,0.,1.2
1979-03-06 08:20:44.790 ,3,1,0.,1.2,0.,1.2,4.,1.2,0.,1.2
1979-03-06 08:20:45.990 ,3,1,0.,1.2,0.,1.2,4.,1.2,0.,1.2
1979-03-06 08:20:47.190 ,3,1,0.,1.2,0.,1.2,5.,1.2,0.,1.2
1979-03-06 08:20:48.390 ,3,1,0.,1.2,0.,1.2,8.,1.2,0.,1.2
1979-03-06 08:20:49.590 ,3,1,11.,1.2,0.,1.2,0.,1.2,0.,1.2
1979-03-06 08:20:50.790 ,3,1,8.,1.2,0.,1.2,0.,1.2,0.,1.2
1979-03-06 08:20:51.990 ,3,1,5.,1.2,0.,1.2,0.,1.2,0.,1.2
1979-03-06 08:20:53.190 ,3,1,7.,1.2,0.,1.2,0.,1.2,0.,1.2
1979-03-06 08:20:54.390 ,3,1,6.,1.2,0.,1.2,0.,1.2,0.,1.2
1979-03-06 08:20:55.590 ,3,1,2.,1.2,0.,1.2,0.,1.2,0.,1.2
1979-03-06 08:20:56.790 ,3,1,13.,1.2,0.,1.2,0.,1.2,0.,1.2
1979-03-06 08:20:57.990 ,3,1,8.,1.2,0.,1.2,0.,1.2,1.,1.2
1979-03-06 08:20:59.190 ,3,1,7.,1.2,0.,1.2,0.,1.2,0.,1.2
1979-03-06 08:21:00.390 ,3,1,5.,1.2,0.,1.2,0.,1.2,0.,1.2
1979-03-06 08:21:01.590 ,3,1,8.,1.2,0.,1.2,0.,1.2,0.,1.2
1979-03-06 08:21:02.790 ,3,1,6.,1.2,0.,1.2,0.,1.2,0.,1.2
1979-03-06 08:21:03.990 ,3,1,2.,1.2,0.,1.2,0.,1.2,0.,1.2
1979-03-06 08:21:05.190 ,3,1,7.,1.2,0.,1.2,0.,1.2,0.,1.2
1979-03-06 08:21:06.390 ,3,1,8.,1.2,0.,1.2,0.,1.2,0.,1.2
1979-03-06 08:21:07.590 ,3,1,9.,1.2,0.,1.2,0.,1.2,0.,1.2
1979-03-06 08:21:08.790 ,0,1,9.,1.2,0.,1.2,0.,1.2,0.,1.2
1979-03-06 08:21:09.990 ,0,1,2.,1.2,0.,1.2,0.,1.2,0.,1.2
1979-03-06 08:21:11.190 ,0,1,7.,1.2,0.,1.2,0.,1.2,0.,1.2
1979-03-06 08:21:12.390 ,0,1,6.,1.2,0.,1.2,1.,1.2,0.,1.2
1979-03-06 08:21:13.590 ,0,1,9.,1.2,0.,1.2,0.,1.2,0.,1.2
1979-03-06 08:21:14.790 ,0,1,2.,1.2,0.,1.2,0.,1.2,0.,1.2
1979-03-06 08:21:15.990 ,0,1,10.,1.2,0.,1.2,0.,1.2,0.,1.2
1979-03-06 08:21:17.190 ,0,1,7.,1.2,0.,1.2,0.,1.2,0.,1.2
1979-03-06 08:21:18.390 ,0,1,7.,1.2,0.,1.2,0.,1.2,1.,1.2
1979-03-06 08:21:19.590 ,0,1,2.,1.2,0.,1.2,0.,1.2,0.,1.2
1979-03-06 08:21:20.790 ,0,1,3.,1.2,0.,1.2,0.,1.2,0.,1.2
1979-03-06 08:21:21.990 ,0,1,7.,1.2,0.,1.2,0.,1.2,0.,1.2
1979-03-06 08:21:23.190 ,0,1,6.,1.2,0.,1.2,1.,1.2,0.,1.2
1979-03-06 08:21:24.390 ,0,1,8.,1.2,0.,1.2,0.,1.2,0.,1.2
1979-03-06 08:21:25.590 ,0,1,4.,1.2,0.,1.2,1.,1.2,1.,1.2
1979-03-06 08:21:26.790 ,0,1,8.,1.2,0.,1.2,0.,1.2,0.,1.2
1979-03-06 08:21:27.990 ,0,1,16.,1.2,0.,1.2,0.,1.2,0.,1.2
1979-03-06 08:21:29.190 ,0,1,12.,1.2,0.,1.2,0.,1.2,0.,1.2
1979-03-06 08:21:30.390 ,0,1,9.,1.2,0.,1.2,0.,1.2,0.,1.2
1979-03-06 08:21:31.590 ,0,1,5.,1.2,0.,1.2,0.,1.2,0.,1.2
1979-03-06 08:21:32.790 ,4,1,10.,1.2,0.,1.2,0.,1.2,0.,1.2
1979-03-06 08:21:33.990 ,4,1,4.,1.2,0.,1.2,0.,1.2,0.,1.2
1979-03-06 08:21:35.190 ,4,1,8.,1.2,0.,1.2,0.,1.2,0.,1.2
1979-03-06 08:21:36.390 ,4,1,2.,1.2,0.,1.2,0.,1.2,0.,1.2
1979-03-06 08:21:37.590 ,4,1,5.,1.2,0.,1.2,0.,1.2,0.,1.2
1979-03-06 08:21:38.790 ,4,1,7.,1.2,0.,1.2,0.,1.2,0.,1.2
1979-03-06 08:21:39.990 ,4,1,9.,1.2,0.,1.2,0.,1.2,0.,1.2
1979-03-06 08:21:41.190 ,4,1,6.,1.2,0.,1.2,0.,1.2,0.,1.2
1979-03-06 08:21:42.390 ,4,1,7.,1.2,0.,1.2,0.,1.2,0.,1.2
1979-03-06 08:21:43.590 ,4,1,4.,1.2,0.,1.2,0.,1.2,0.,1.2
1979-03-06 08:21:44.790 ,4,1,6.,1.2,0.,1.2,0.,1.2,0.,1.2
1979-03-06 08:21:45.990 ,4,1,6.,1.2,0.,1.2,0.,1.2,0.,1.2
1979-03-06 08:21:47.190 ,4,1,3.,1.2,0.,1.2,1.,1.2,0.,1.2
1979-03-06 08:21:48.390 ,4,1,3.,1.2,0.,1.2,0.,1.2,1.,1.2
1979-03-06 08:21:49.590 ,4,1,8.,1.2,0.,1.2,0.,1.2,0.,1.2
1979-03-06 08:21:50.790 ,4,1,7.,1.2,0.,1.2,2.,1.2,0.,1.2
1979-03-06 08:21:51.990 ,4,1,13.,1.2,0.,1.2,1.,1.2,0.,1.2
1979-03-06 08:21:53.190 ,4,1,3.,1.2,0.,1.2,0.,1.2,0.,1.2
1979-03-06 08:21:54.390 ,4,1,9.,1.2,0.,1.2,0.,1.2,0.,1.2
1979-03-06 08:21:55.590 ,4,1,4.,1.2,0.,1.2,1.,1.2,0.,1.2
1979-03-06 08:21:56.790 ,7,1,5.,1.2,0.,1.2,0.,1.2,0.,1.2
1979-03-06 08:21:57.990 ,7,1,7.,1.2,0.,1.2,0.,1.2,0.,1.2
1979-03-06 08:21:59.190 ,7,1,7.,1.2,0.,1.2,0.,1.2,0.,1.2
1979-03-06 08:22:00.390 ,7,1,6.,1.2,0.,1.2,0.,1.2,0.,1.2
1979-03-06 08:22:01.590 ,7,1,6.,1.2,0.,1.2,1.,1.2,0.,1.2
1979-03-06 08:22:02.790 ,7,1,8.,1.2,0.,1.2,0.,1.2,0.,1.2
1979-03-06 08:22:03.990 ,7,1,4.,1.2,0.,1.2,0.,1.2,0.,1.2
1979-03-06 08:22:05.190 ,7,1,4.,1.2,0.,1.2,1.,1.2,0.,1.2
1979-03-06 08:22:06.390 ,7,1,6.,1.2,0.,1.2,0.,1.2,0.,1.2
1979-03-06 08:22:07.590 ,7,1,4.,1.2,0.,1.2,0.,1.2,0.,1.2
1979-03-06 08:22:08.790 ,7,1,9.,1.2,0.,1.2,0.,1.2,0.,1.2
1979-03-06 08:22:09.990 ,7,1,4.,1.2,0.,1.2,0.,1.2,0.,1.2
1979-03-06 08:22:11.190 ,7,1,10.,1.2,0.,1.2,0.,1.2,0.,1.2
1979-03-06 08:22:12.390 ,7,1,4.,1.2,0.,1.2,0.,1.2,0.,1.2
1979-03-06 08:22:13.590 ,7,1,0.,1.2,0.,1.2,5.,1.2,1.,1.2
1979-03-06 08:22:14.790 ,7,1,0.,1.2,0.,1.2,8.,1.2,0.,1.2
1979-03-06 08:22:15.990 ,7,1,0.,1.2,0.,1.2,6.,1.2,0.,1.2
1979-03-06 08:22:17.190 ,7,1,0.,1.2,0.,1.2,4.,1.2,0.,1.2
1979-03-06 08:22:18.390 ,7,1,0.,1.2,0.,1.2,3.,1.2,0.,1.2
1979-03-06 08:22:19.590 ,7,1,0.,1.2,0.,1.2,4.,1.2,0.,1.2
1979-03-06 08:22:20.790 ,3,1,0.,1.2,0.,1.2,2.,1.2,0.,1.2
1979-03-06 08:22:21.990 ,3,1,1.,1.2,0.,1.2,7.,1.2,0.,1.2
1979-03-06 08:22:23.190 ,3,1,0.,1.2,0.,1.2,8.,1.2,0.,1.2
1979-03-06 08:22:24.390 ,3,1,0.,1.2,0.,1.2,10.,1.2,0.,1.2
1979-03-06 08:22:25.590 ,3,1,5.,1.2,0.,1.2,1.,1.2,0.,1.2
1979-03-06 08:22:26.790 ,3,1,2.,1.2,0.,1.2,0.,1.2,0.,1.2
1979-03-06 08:22:27.990 ,3,1,6.,1.2,0.,1.2,0.,1.2,0.,1.2
1979-03-06 08:22:29.190 ,3,1,8.,1.2,0.,1.2,0.,1.2,0.,1.2
1979-03-06 08:22:30.390 ,3,1,4.,1.2,0.,1.2,0.,1.2,1.,1.2
1979-03-06 08:22:31.590 ,3,1,10.,1.2,0.,1.2,0.,1.2,0.,1.2
1979-03-06 08:22:32.790 ,3,1,3.,1.2,0.,1.2,0.,1.2,0.,1.2
1979-03-06 08:22:33.990 ,3,1,11.,1.2,0.,1.2,0.,1.2,0.,1.2
1979-03-06 08:22:35.190 ,3,1,6.,1.2,0.,1.2,0.,1.2,0.,1.2
1979-03-06 08:22:36.390 ,3,1,6.,1.2,0.,1.2,0.,1.2,0.,1.2
1979-03-06 08:22:37.590 ,3,1,8.,1.2,0.,1.2,0.,1.2,0.,1.2
1979-03-06 08:22:38.790 ,3,1,4.,1.2,0.,1.2,0.,1.2,0.,1.2
1979-03-06 08:22:39.990 ,3,1,5.,1.2,0.,1.2,0.,1.2,0.,1.2
1979-03-06 08:22:41.190 ,3,1,8.,1.2,0.,1.2,0.,1.2,0.,1.2
1979-03-06 08:22:42.390 ,3,1,6.,1.2,0.,1.2,0.,1.2,0.,1.2
1979-03-06 08:22:43.590 ,3,1,8.,1.2,0.,1.2,0.,1.2,0.,1.2
1979-03-06 08:22:44.790 ,0,1,7.,1.2,0.,1.2,0.,1.2,0.,1.2
1979-03-06 08:22:45.990 ,0,1,6.,1.2,0.,1.2,0.,1.2,0.,1.2
1979-03-06 08:22:47.190 ,0,1,9.,1.2,0.,1.2,0.,1.2,0.,1.2
1979-03-06 08:22:48.390 ,0,1,1.,1.2,0.,1.2,0.,1.2,0.,1.2
1979-03-06 08:22:49.590 ,0,1,5.,1.2,0.,1.2,0.,1.2,0.,1.2
1979-03-06 08:22:50.790 ,0,1,6.,1.2,0.,1.2,0.,1.2,1.,1.2
1979-03-06 08:22:51.990 ,0,1,12.,1.2,0.,1.2,0.,1.2,0.,1.2
1979-03-06 08:22:53.190 ,0,1,10.,1.2,0.,1.2,0.,1.2,0.,1.2
1979-03-06 08:22:54.390 ,0,1,5.,1.2,0.,1.2,0.,1.2,0.,1.2
1979-03-06 08:22:55.590 ,0,1,10.,1.2,0.,1.2,0.,1.2,0.,1.2
1979-03-06 08:22:56.790 ,0,1,6.,1.2,0.,1.2,0.,1.2,0.,1.2
1979-03-06 08:22:57.990 ,0,1,5.,1.2,0.,1.2,0.,1.2,0.,1.2
1979-03-06 08:22:59.190 ,0,1,5.,1.2,0.,1.2,0.,1.2,0.,1.2
1979-03-06 08:23:00.390 ,0,1,4.,1.2,0.,1.2,0.,1.2,0.,1.2
1979-03-06 08:23:01.590 ,0,1,4.,1.2,0.,1.2,0.,1.2,0.,1.2
1979-03-06 08:23:02.790 ,0,1,4.,1.2,0.,1.2,0.,1.2,0.,1.2
1979-03-06 08:23:03.990 ,0,1,5.,1.2,0.,1.2,0.,1.2,0.,1.2
1979-03-06 08:23:05.190 ,0,1,7.,1.2,0.,1.2,0.,1.2,0.,1.2
1979-03-06 08:23:06.390 ,0,1,6.,1.2,0.,1.2,0.,1.2,0.,1.2
1979-03-06 08:23:07.590 ,0,1,9.,1.2,0.,1.2,0.,1.2,0.,1.2
1979-03-06 08:23:08.790 ,4,1,3.,1.2,0.,1.2,2.,1.2,0.,1.2
1979-03-06 08:23:09.990 ,4,1,4.,1.2,0.,1.2,0.,1.2,0.,1.2
1979-03-06 08:23:11.190 ,4,1,10.,1.2,0.,1.2,0.,1.2,0.,1.2
1979-03-06 08:23:12.390 ,4,1,3.,1.2,0.,1.2,0.,1.2,0.,1.2
1979-03-06 08:23:13.590 ,4,1,9.,1.2,0.,1.2,0.,1.2,0.,1.2
1979-03-06 08:23:14.790 ,4,1,9.,1.2,0.,1.2,0.,1.2,0.,1.2
1979-03-06 08:23:15.990 ,4,1,7.,1.2,0.,1.2,0.,1.2,0.,1.2
1979-03-06 08:23:17.190 ,4,1,8.,1.2,0.,1.2,0.,1.2,0.,1.2
1979-03-06 08:23:18.390 ,4,1,4.,1.2,0.,1.2,1.,1.2,1.,1.2
1979-03-06 08:23:19.590 ,4,1,3.,1.2,0.,1.2,0.,1.2,0.,1.2
1979-03-06 08:23:20.790 ,4,1,7.,1.2,0.,1.2,0.,1.2,0.,1.2
1979-03-06 08:23:21.990 ,4,1,6.,1.2,0.,1.2,0.,1.2,0.,1.2
1979-03-06 08:23:23.190 ,4,1,2.,1.2,0.,1.2,1.,1.2,0.,1.2
1979-03-06 08:23:24.390 ,4,1,11.,1.2,0.,1.2,0.,1.2,0.,1.2
1979-03-06 08:23:25.590 ,4,1,3.,1.2,0.,1.2,0.,1.2,1.,1.2
1979-03-06 08:23:26.790 ,4,1,5.,1.2,0.,1.2,0.,1.2,0.,1.2
1979-03-06 08:23:27.990 ,4,1,8.,1.2,0.,1.2,0.,1.2,0.,1.2
1979-03-06 08:23:29.190 ,4,1,10.,1.2,0.,1.2,0.,1.2,0.,1.2
1979-03-06 08:23:30.390 ,4,1,4.,1.2,0.,1.2,0.,1.2,0.,1.2
1979-03-06 08:23:31.590 ,4,1,12.,1.2,0.,1.2,0.,1.2,0.,1.2
1979-03-06 08:23:32.790 ,7,1,5.,1.2,0.,1.2,0.,1.2,0.,1.2
1979-03-06 08:23:33.990 ,7,1,5.,1.2,0.,1.2,0.,1.2,0.,1.2
1979-03-06 08:23:35.190 ,7,1,6.,1.2,0.,1.2,0.,1.2,0.,1.2
1979-03-06 08:23:36.390 ,7,1,8.,1.2,0.,1.2,0.,1.2,0.,1.2
1979-03-06 08:23:37.590 ,7,1,3.,1.2,0.,1.2,0.,1.2,0.,1.2
1979-03-06 08:23:38.790 ,7,1,6.,1.2,0.,1.2,0.,1.2,0.,1.2
1979-03-06 08:23:39.990 ,7,1,6.,1.2,0.,1.2,0.,1.2,0.,1.2
1979-03-06 08:23:41.190 ,7,1,5.,1.2,0.,1.2,0.,1.2,0.,1.2
1979-03-06 08:23:42.390 ,7,1,8.,1.2,0.,1.2,0.,1.2,0.,1.2
1979-03-06 08:23:43.590 ,7,1,6.,1.2,0.,1.2,0.,1.2,0.,1.2
1979-03-06 08:23:44.790 ,7,1,3.,1.2,0.,1.2,0.,1.2,0.,1.2
1979-03-06 08:23:45.990 ,7,1,8.,1.2,0.,1.2,0.,1.2,0.,1.2
1979-03-06 08:23:47.190 ,7,1,6.,1.2,0.,1.2,0.,1.2,0.,1.2
1979-03-06 08:23:48.390 ,7,1,6.,1.2,0.,1.2,0.,1.2,0.,1.2
1979-03-06 08:23:49.590 ,7,1,0.,1.2,0.,1.2,4.,1.2,0.,1.2
1979-03-06 08:23:50.790 ,7,1,0.,1.2,0.,1.2,4.,1.2,0.,1.2
1979-03-06 08:23:51.990 ,7,1,0.,1.2,0.,1.2,10.,1.2,0.,1.2
1979-03-06 08:23:53.190 ,7,1,0.,1.2,0.,1.2,13.,1.2,0.,1.2
1979-03-06 08:23:54.390 ,7,1,0.,1.2,0.,1.2,5.,1.2,0.,1.2
1979-03-06 08:23:55.590 ,7,1,0.,1.2,0.,1.2,7.,1.2,0.,1.2
1979-03-06 08:23:56.790 ,3,1,1.,1.2,0.,1.2,5.,1.2,0.,1.2
1979-03-06 08:23:57.990 ,3,1,1.,1.2,0.,1.2,3.,1.2,0.,1.2
1979-03-06 08:23:59.190 ,3,1,0.,1.2,0.,1.2,7.,1.2,0.,1.2
1979-03-06 08:24:00.390 ,3,1,1.,1.2,0.,1.2,4.,1.2,0.,1.2
1979-03-06 08:24:01.590 ,3,1,3.,1.2,0.,1.2,1.,1.2,0.,1.2
1979-03-06 08:24:02.790 ,3,1,5.,1.2,0.,1.2,1.,1.2,0.,1.2
1979-03-06 08:24:03.990 ,3,1,7.,1.2,0.,1.2,0.,1.2,0.,1.2
1979-03-06 08:24:05.190 ,3,1,4.,1.2,0.,1.2,0.,1.2,0.,1.2
1979-03-06 08:24:06.390 ,3,1,10.,1.2,0.,1.2,1.,1.2,0.,1.2
1979-03-06 08:24:07.590 ,3,1,5.,1.2,0.,1.2,0.,1.2,0.,1.2
1979-03-06 08:24:08.790 ,3,1,14.,1.2,0.,1.2,0.,1.2,0.,1.2
1979-03-06 08:24:09.990 ,3,1,6.,1.2,0.,1.2,0.,1.2,0.,1.2
1979-03-06 08:24:11.190 ,3,1,8.,1.2,0.,1.2,0.,1.2,0.,1.2
1979-03-06 08:24:12.390 ,3,1,8.,1.2,0.,1.2,0.,1.2,0.,1.2
1979-03-06 08:24:13.590 ,3,1,3.,1.2,0.,1.2,0.,1.2,0.,1.2
1979-03-06 08:24:14.790 ,3,1,9.,1.2,0.,1.2,0.,1.2,0.,1.2
1979-03-06 08:24:15.990 ,3,1,11.,1.2,0.,1.2,0.,1.2,0.,1.2
1979-03-06 08:24:17.190 ,3,1,7.,1.2,0.,1.2,0.,1.2,0.,1.2
1979-03-06 08:24:18.390 ,3,1,17.,1.2,0.,1.2,0.,1.2,0.,1.2
1979-03-06 08:24:19.590 ,3,1,8.,1.2,0.,1.2,0.,1.2,0.,1.2
1979-03-06 08:24:20.790 ,0,1,6.,1.2,0.,1.2,0.,1.2,0.,1.2
1979-03-06 08:24:21.990 ,0,1,3.,1.2,0.,1.2,0.,1.2,0.,1.2
1979-03-06 08:24:23.190 ,0,1,4.,1.2,0.,1.2,0.,1.2,0.,1.2
1979-03-06 08:24:24.390 ,0,1,6.,1.2,0.,1.2,0.,1.2,0.,1.2
1979-03-06 08:24:25.590 ,0,1,6.,1.2,0.,1.2,1.,1.2,0.,1.2
1979-03-06 08:24:26.790 ,0,1,5.,1.2,0.,1.2,0.,1.2,0.,1.2
1979-03-06 08:24:27.990 ,0,1,7.,1.2,0.,1.2,0.,1.2,0.,1.2
1979-03-06 08:24:29.190 ,0,1,5.,1.2,0.,1.2,0.,1.2,0.,1.2
1979-03-06 08:24:30.390 ,0,1,0.,1.2,0.,1.2,0.,1.2,0.,1.2
1979-03-06 08:24:31.590 ,0,1,8.,1.2,0.,1.2,0.,1.2,0.,1.2
1979-03-06 08:24:32.790 ,0,1,7.,1.2,0.,1.2,0.,1.2,0.,1.2
1979-03-06 08:24:33.990 ,0,1,5.,1.2,0.,1.2,0.,1.2,0.,1.2
1979-03-06 08:24:35.190 ,0,1,6.,1.2,0.,1.2,0.,1.2,0.,1.2
1979-03-06 08:24:36.390 ,0,1,5.,1.2,0.,1.2,0.,1.2,0.,1.2
1979-03-06 08:24:37.590 ,0,1,3.,1.2,0.,1.2,0.,1.2,2.,1.2
1979-03-06 08:24:38.790 ,0,1,10.,1.2,0.,1.2,0.,1.2,0.,1.2
1979-03-06 08:24:39.990 ,0,1,8.,1.2,0.,1.2,0.,1.2,0.,1.2
1979-03-06 08:24:41.190 ,0,1,3.,1.2,0.,1.2,0.,1.2,0.,1.2
1979-03-06 08:24:42.390 ,0,1,8.,1.2,0.,1.2,0.,1.2,0.,1.2
1979-03-06 08:24:43.590 ,0,1,5.,1.2,0.,1.2,0.,1.2,0.,1.2
1979-03-06 08:24:44.790 ,4,1,9.,1.2,0.,1.2,0.,1.2,0.,1.2
1979-03-06 08:24:45.990 ,4,1,2.,1.2,0.,1.2,0.,1.2,0.,1.2
1979-03-06 08:24:47.190 ,4,1,5.,1.2,0.,1.2,0.,1.2,0.,1.2
1979-03-06 08:24:48.390 ,4,1,9.,1.2,0.,1.2,0.,1.2,0.,1.2
1979-03-06 08:24:49.590 ,4,1,5.,1.2,0.,1.2,0.,1.2,0.,1.2
1979-03-06 08:24:50.790 ,4,1,7.,1.2,0.,1.2,0.,1.2,0.,1.2
1979-03-06 08:24:51.990 ,4,1,11.,1.2,0.,1.2,0.,1.2,0.,1.2
1979-03-06 08:24:53.190 ,4,1,7.,1.2,0.,1.2,0.,1.2,0.,1.2
1979-03-06 08:24:54.390 ,4,1,12.,1.2,0.,1.2,0.,1.2,0.,1.2
1979-03-06 08:24:55.590 ,4,1,9.,1.2,0.,1.2,0.,1.2,0.,1.2
1979-03-06 08:24:56.790 ,4,1,6.,1.2,0.,1.2,1.,1.2,0.,1.2
1979-03-06 08:24:57.990 ,4,1,9.,1.2,0.,1.2,0.,1.2,0.,1.2
1979-03-06 08:24:59.190 ,4,1,3.,1.2,0.,1.2,0.,1.2,0.,1.2
1979-03-06 08:25:00.390 ,4,1,3.,1.2,0.,1.2,0.,1.2,0.,1.2
1979-03-06 08:25:01.590 ,4,1,7.,1.2,0.,1.2,0.,1.2,0.,1.2
1979-03-06 08:25:02.790 ,4,1,6.,1.2,0.,1.2,0.,1.2,0.,1.2
1979-03-06 08:25:03.990 ,4,1,3.,1.2,0.,1.2,0.,1.2,0.,1.2
1979-03-06 08:25:05.190 ,4,1,13.,1.2,0.,1.2,0.,1.2,0.,1.2
1979-03-06 08:25:06.390 ,4,1,8.,1.2,0.,1.2,0.,1.2,0.,1.2
1979-03-06 08:25:07.590 ,4,1,6.,1.2,0.,1.2,0.,1.2,0.,1.2
1979-03-06 08:25:08.790 ,7,1,4.,1.2,0.,1.2,0.,1.2,0.,1.2
1979-03-06 08:25:09.990 ,7,1,7.,1.2,0.,1.2,0.,1.2,0.,1.2
1979-03-06 08:25:11.190 ,7,1,5.,1.2,0.,1.2,0.,1.2,0.,1.2
1979-03-06 08:25:12.390 ,7,1,11.,1.2,0.,1.2,0.,1.2,0.,1.2
1979-03-06 08:25:13.590 ,7,1,7.,1.2,0.,1.2,0.,1.2,0.,1.2
1979-03-06 08:25:14.790 ,7,1,6.,1.2,0.,1.2,0.,1.2,0.,1.2
1979-03-06 08:25:15.990 ,7,1,6.,1.2,0.,1.2,0.,1.2,0.,1.2
1979-03-06 08:25:17.190 ,7,1,10.,1.2,0.,1.2,0.,1.2,0.,1.2
1979-03-06 08:25:18.390 ,7,1,8.,1.2,0.,1.2,1.,1.2,1.,1.2
1979-03-06 08:25:19.590 ,7,1,9.,1.2,0.,1.2,0.,1.2,0.,1.2
1979-03-06 08:25:20.790 ,7,1,4.,1.2,0.,1.2,1.,1.2,0.,1.2
1979-03-06 08:25:21.990 ,7,1,8.,1.2,0.,1.2,0.,1.2,0.,1.2
1979-03-06 08:25:23.190 ,7,1,13.,1.2,0.,1.2,0.,1.2,0.,1.2
1979-03-06 08:25:24.390 ,7,1,7.,1.2,0.,1.2,0.,1.2,0.,1.2
1979-03-06 08:25:25.590 ,7,1,0.,1.2,0.,1.2,7.,1.2,0.,1.2
1979-03-06 08:25:26.790 ,7,1,1.,1.2,0.,1.2,2.,1.2,0.,1.2
1979-03-06 08:25:27.990 ,7,1,0.,1.2,0.,1.2,5.,1.2,0.,1.2
1979-03-06 08:25:29.190 ,7,1,0.,1.2,0.,1.2,4.,1.2,0.,1.2
1979-03-06 08:25:30.390 ,7,1,0.,1.2,0.,1.2,5.,1.2,0.,1.2
1979-03-06 08:25:31.590 ,7,1,0.,1.2,0.,1.2,6.,1.2,0.,1.2
1979-03-06 08:25:32.790 ,3,1,0.,1.2,0.,1.2,7.,1.2,0.,1.2
1979-03-06 08:25:33.990 ,3,1,1.,1.2,0.,1.2,4.,1.2,0.,1.2
1979-03-06 08:25:35.190 ,3,1,0.,1.2,0.,1.2,5.,1.2,0.,1.2
1979-03-06 08:25:36.390 ,3,1,0.,1.2,0.,1.2,4.,1.2,0.,1.2
1979-03-06 08:25:37.590 ,3,1,7.,1.2,0.,1.2,0.,1.2,1.,1.2
1979-03-06 08:25:38.790 ,3,1,4.,1.2,0.,1.2,0.,1.2,0.,1.2
1979-03-06 08:25:39.990 ,3,1,6.,1.2,0.,1.2,0.,1.2,0.,1.2
1979-03-06 08:25:41.190 ,3,1,8.,1.2,0.,1.2,0.,1.2,0.,1.2
1979-03-06 08:25:42.390 ,3,1,5.,1.2,0.,1.2,0.,1.2,0.,1.2
1979-03-06 08:25:43.590 ,3,1,8.,1.2,0.,1.2,0.,1.2,0.,1.2
1979-03-06 08:25:44.790 ,3,1,4.,1.2,0.,1.2,0.,1.2,0.,1.2
1979-03-06 08:25:45.990 ,3,1,8.,1.2,0.,1.2,0.,1.2,0.,1.2
1979-03-06 08:25:47.190 ,3,1,5.,1.2,0.,1.2,0.,1.2,1.,1.2
1979-03-06 08:25:48.390 ,3,1,8.,1.2,0.,1.2,0.,1.2,0.,1.2
1979-03-06 08:25:49.590 ,3,1,11.,1.2,0.,1.2,0.,1.2,0.,1.2
1979-03-06 08:25:50.790 ,3,1,5.,1.2,0.,1.2,0.,1.2,0.,1.2
1979-03-06 08:25:51.990 ,3,1,8.,1.2,0.,1.2,1.,1.2,0.,1.2
1979-03-06 08:25:53.190 ,3,1,7.,1.2,0.,1.2,0.,1.2,0.,1.2
1979-03-06 08:25:54.390 ,3,1,6.,1.2,0.,1.2,0.,1.2,0.,1.2
1979-03-06 08:25:55.590 ,3,1,8.,1.2,0.,1.2,0.,1.2,0.,1.2
1979-03-06 08:25:56.790 ,0,1,4.,1.2,0.,1.2,1.,1.2,0.,1.2
1979-03-06 08:25:57.990 ,0,1,9.,1.2,0.,1.2,0.,1.2,0.,1.2
1979-03-06 08:25:59.190 ,0,1,8.,1.2,0.,1.2,1.,1.2,0.,1.2
1979-03-06 08:26:00.390 ,0,1,3.,1.2,0.,1.2,0.,1.2,0.,1.2
1979-03-06 08:26:01.590 ,0,1,10.,1.2,0.,1.2,0.,1.2,0.,1.2
1979-03-06 08:26:02.790 ,0,1,6.,1.2,0.,1.2,0.,1.2,0.,1.2
1979-03-06 08:26:03.990 ,0,1,8.,1.2,0.,1.2,0.,1.2,0.,1.2
1979-03-06 08:26:05.190 ,0,1,3.,1.2,0.,1.2,0.,1.2,0.,1.2
1979-03-06 08:26:06.390 ,0,1,7.,1.2,0.,1.2,0.,1.2,0.,1.2
1979-03-06 08:26:07.590 ,0,1,5.,1.2,0.,1.2,0.,1.2,0.,1.2
1979-03-06 08:26:08.790 ,0,1,9.,1.2,0.,1.2,0.,1.2,0.,1.2
1979-03-06 08:26:09.990 ,0,1,10.,1.2,0.,1.2,1.,1.2,0.,1.2
1979-03-06 08:26:11.190 ,0,1,6.,1.2,0.,1.2,0.,1.2,0.,1.2
1979-03-06 08:26:12.390 ,0,1,4.,1.2,0.,1.2,0.,1.2,1.,1.2
1979-03-06 08:26:13.590 ,0,1,7.,1.2,0.,1.2,0.,1.2,0.,1.2
1979-03-06 08:26:14.790 ,0,1,5.,1.2,0.,1.2,1.,1.2,0.,1.2
1979-03-06 08:26:15.990 ,0,1,3.,1.2,0.,1.2,0.,1.2,0.,1.2
1979-03-06 08:26:17.190 ,0,1,2.,1.2,0.,1.2,0.,1.2,0.,1.2
1979-03-06 08:26:18.390 ,0,1,2.,1.2,0.,1.2,0.,1.2,0.,1.2
1979-03-06 08:26:19.590 ,0,1,4.,1.2,0.,1.2,0.,1.2,1.,1.2
1979-03-06 08:26:20.790 ,4,1,2.,1.2,0.,1.2,0.,1.2,0.,1.2
1979-03-06 08:26:21.990 ,4,1,4.,1.2,0.,1.2,1.,1.2,0.,1.2
1979-03-06 08:26:23.190 ,4,1,8.,1.2,0.,1.2,0.,1.2,0.,1.2
1979-03-06 08:26:24.390 ,4,1,5.,1.2,0.,1.2,0.,1.2,0.,1.2
1979-03-06 08:26:25.590 ,4,1,8.,1.2,0.,1.2,0.,1.2,0.,1.2
1979-03-06 08:26:26.790 ,4,1,7.,1.2,0.,1.2,0.,1.2,0.,1.2
1979-03-06 08:26:27.990 ,4,1,7.,1.2,0.,1.2,0.,1.2,0.,1.2
1979-03-06 08:26:29.190 ,4,1,4.,1.2,0.,1.2,0.,1.2,0.,1.2
1979-03-06 08:26:30.390 ,4,1,6.,1.2,0.,1.2,0.,1.2,0.,1.2
1979-03-06 08:26:31.590 ,4,1,3.,1.2,0.,1.2,0.,1.2,1.,1.2
1979-03-06 08:26:32.790 ,4,1,3.,1.2,0.,1.2,0.,1.2,0.,1.2
1979-03-06 08:26:33.990 ,4,1,9.,1.2,0.,1.2,0.,1.2,0.,1.2
1979-03-06 08:26:35.190 ,4,1,4.,1.2,0.,1.2,0.,1.2,0.,1.2